Year,Month,Day,Hour,Minute,Value (Times are PST for insolation in W/m^2)
2017,03,17,00,00,0.00
2017,03,17,00,01,0.00
2017,03,17,00,02,0.00
2017,03,17,00,03,0.00
2017,03,17,00,04,0.00
2017,03,17,00,05,0.00
2017,03,17,00,06,0.00
2017,03,17,00,07,0.00
2017,03,17,00,08,0.00
2017,03,17,00,09,0.00
2017,03,17,00,10,0.00
2017,03,17,00,11,0.00
2017,03,17,00,12,0.00
2017,03,17,00,13,0.00
2017,03,17,00,14,0.00
2017,03,17,00,15,0.00
2017,03,17,00,16,0.00
2017,03,17,00,17,0.00
2017,03,17,00,18,0.00
2017,03,17,00,19,0.00
2017,03,17,00,20,0.00
2017,03,17,00,21,0.00
2017,03,17,00,22,0.00
2017,03,17,00,23,0.00
2017,03,17,00,24,0.00
2017,03,17,00,25,0.00
2017,03,17,00,26,0.00
2017,03,17,00,27,0.00
2017,03,17,00,28,0.00
2017,03,17,00,29,0.00
2017,03,17,00,30,0.00
2017,03,17,00,31,0.00
2017,03,17,00,32,0.00
2017,03,17,00,33,0.00
2017,03,17,00,34,0.00
2017,03,17,00,35,0.00
2017,03,17,00,36,0.00
2017,03,17,00,37,0.00
2017,03,17,00,38,0.00
2017,03,17,00,39,0.00
2017,03,17,00,40,0.00
2017,03,17,00,41,0.00
2017,03,17,00,42,0.00
2017,03,17,00,43,0.00
2017,03,17,00,44,0.00
2017,03,17,00,45,0.00
2017,03,17,00,46,0.00
2017,03,17,00,47,0.00
2017,03,17,00,48,0.00
2017,03,17,00,49,0.00
2017,03,17,00,50,0.00
2017,03,17,00,51,0.00
2017,03,17,00,52,0.00
2017,03,17,00,53,0.00
2017,03,17,00,54,0.00
2017,03,17,00,55,0.00
2017,03,17,00,56,0.00
2017,03,17,00,57,0.00
2017,03,17,00,58,0.00
2017,03,17,00,59,0.00
2017,03,17,01,00,0.00
2017,03,17,01,01,0.00
2017,03,17,01,02,0.00
2017,03,17,01,03,0.00
2017,03,17,01,04,0.00
2017,03,17,01,05,0.00
2017,03,17,01,06,0.00
2017,03,17,01,07,0.00
2017,03,17,01,08,0.00
2017,03,17,01,09,0.00
2017,03,17,01,10,0.00
2017,03,17,01,11,0.00
2017,03,17,01,12,0.00
2017,03,17,01,13,0.00
2017,03,17,01,14,0.00
2017,03,17,01,15,0.00
2017,03,17,01,16,0.00
2017,03,17,01,17,0.00
2017,03,17,01,18,0.00
2017,03,17,01,19,0.00
2017,03,17,01,20,0.00
2017,03,17,01,21,0.00
2017,03,17,01,22,0.00
2017,03,17,01,23,0.00
2017,03,17,01,24,0.00
2017,03,17,01,25,0.00
2017,03,17,01,26,0.00
2017,03,17,01,27,0.00
2017,03,17,01,28,0.00
2017,03,17,01,29,0.00
2017,03,17,01,30,0.00
2017,03,17,01,31,0.00
2017,03,17,01,32,0.00
2017,03,17,01,33,0.00
2017,03,17,01,34,0.00
2017,03,17,01,35,0.00
2017,03,17,01,36,0.00
2017,03,17,01,37,0.00
2017,03,17,01,38,0.00
2017,03,17,01,39,0.00
2017,03,17,01,40,0.00
2017,03,17,01,41,0.00
2017,03,17,01,42,0.00
2017,03,17,01,43,0.00
2017,03,17,01,44,0.00
2017,03,17,01,45,0.00
2017,03,17,01,46,0.00
2017,03,17,01,47,0.00
2017,03,17,01,48,0.00
2017,03,17,01,49,0.00
2017,03,17,01,50,0.00
2017,03,17,01,51,0.00
2017,03,17,01,52,0.00
2017,03,17,01,53,0.00
2017,03,17,01,54,0.00
2017,03,17,01,55,0.00
2017,03,17,01,56,0.00
2017,03,17,01,57,0.00
2017,03,17,01,58,0.00
2017,03,17,01,59,0.00
2017,03,17,02,00,0.00
2017,03,17,02,01,0.00
2017,03,17,02,02,0.00
2017,03,17,02,03,0.00
2017,03,17,02,04,0.00
2017,03,17,02,05,0.00
2017,03,17,02,06,0.00
2017,03,17,02,07,0.00
2017,03,17,02,08,0.00
2017,03,17,02,09,0.00
2017,03,17,02,10,0.00
2017,03,17,02,11,0.00
2017,03,17,02,12,0.00
2017,03,17,02,13,0.00
2017,03,17,02,14,0.00
2017,03,17,02,15,0.00
2017,03,17,02,16,0.00
2017,03,17,02,17,0.00
2017,03,17,02,18,0.00
2017,03,17,02,19,0.00
2017,03,17,02,20,0.00
2017,03,17,02,21,0.00
2017,03,17,02,22,0.00
2017,03,17,02,23,0.00
2017,03,17,02,24,0.00
2017,03,17,02,25,0.00
2017,03,17,02,26,0.00
2017,03,17,02,27,0.00
2017,03,17,02,28,0.00
2017,03,17,02,29,0.00
2017,03,17,02,30,0.00
2017,03,17,02,31,0.00
2017,03,17,02,32,0.00
2017,03,17,02,33,0.00
2017,03,17,02,34,0.00
2017,03,17,02,35,0.00
2017,03,17,02,36,0.00
2017,03,17,02,37,0.00
2017,03,17,02,38,0.00
2017,03,17,02,39,0.00
2017,03,17,02,40,0.00
2017,03,17,02,41,0.00
2017,03,17,02,42,0.00
2017,03,17,02,43,0.00
2017,03,17,02,44,0.00
2017,03,17,02,45,0.00
2017,03,17,02,46,0.00
2017,03,17,02,47,0.00
2017,03,17,02,48,0.00
2017,03,17,02,49,0.00
2017,03,17,02,50,0.00
2017,03,17,02,51,0.00
2017,03,17,02,52,0.00
2017,03,17,02,53,0.00
2017,03,17,02,54,0.00
2017,03,17,02,55,0.00
2017,03,17,02,56,0.00
2017,03,17,02,57,0.00
2017,03,17,02,58,0.00
2017,03,17,02,59,0.00
2017,03,17,03,00,0.00
2017,03,17,03,01,0.00
2017,03,17,03,02,0.00
2017,03,17,03,03,0.00
2017,03,17,03,04,0.00
2017,03,17,03,05,0.00
2017,03,17,03,06,0.00
2017,03,17,03,07,0.00
2017,03,17,03,08,0.00
2017,03,17,03,09,0.00
2017,03,17,03,10,0.00
2017,03,17,03,11,0.00
2017,03,17,03,12,0.00
2017,03,17,03,13,0.00
2017,03,17,03,14,0.00
2017,03,17,03,15,0.00
2017,03,17,03,16,0.00
2017,03,17,03,17,0.00
2017,03,17,03,18,0.00
2017,03,17,03,19,0.00
2017,03,17,03,20,0.00
2017,03,17,03,21,0.00
2017,03,17,03,22,0.00
2017,03,17,03,23,0.00
2017,03,17,03,24,0.00
2017,03,17,03,25,0.00
2017,03,17,03,26,0.00
2017,03,17,03,27,0.00
2017,03,17,03,28,0.00
2017,03,17,03,29,0.00
2017,03,17,03,30,0.00
2017,03,17,03,31,0.00
2017,03,17,03,32,0.00
2017,03,17,03,33,0.00
2017,03,17,03,34,0.00
2017,03,17,03,35,0.00
2017,03,17,03,36,0.00
2017,03,17,03,37,0.00
2017,03,17,03,38,0.00
2017,03,17,03,39,0.00
2017,03,17,03,40,0.00
2017,03,17,03,41,0.00
2017,03,17,03,42,0.00
2017,03,17,03,43,0.00
2017,03,17,03,44,0.00
2017,03,17,03,45,0.00
2017,03,17,03,46,0.00
2017,03,17,03,47,0.00
2017,03,17,03,48,0.00
2017,03,17,03,49,0.00
2017,03,17,03,50,0.00
2017,03,17,03,51,0.00
2017,03,17,03,52,0.00
2017,03,17,03,53,0.00
2017,03,17,03,54,0.00
2017,03,17,03,55,0.00
2017,03,17,03,56,0.00
2017,03,17,03,57,0.00
2017,03,17,03,58,0.00
2017,03,17,03,59,0.00
2017,03,17,04,00,0.00
2017,03,17,04,01,0.00
2017,03,17,04,02,0.00
2017,03,17,04,03,0.00
2017,03,17,04,04,0.00
2017,03,17,04,05,0.00
2017,03,17,04,06,0.00
2017,03,17,04,07,0.00
2017,03,17,04,08,0.00
2017,03,17,04,09,0.00
2017,03,17,04,10,0.00
2017,03,17,04,11,0.00
2017,03,17,04,12,0.00
2017,03,17,04,13,0.00
2017,03,17,04,14,0.00
2017,03,17,04,15,0.00
2017,03,17,04,16,0.00
2017,03,17,04,17,0.00
2017,03,17,04,18,0.00
2017,03,17,04,19,0.00
2017,03,17,04,20,0.00
2017,03,17,04,21,0.00
2017,03,17,04,22,0.00
2017,03,17,04,23,0.00
2017,03,17,04,24,0.00
2017,03,17,04,25,0.00
2017,03,17,04,26,0.00
2017,03,17,04,27,0.00
2017,03,17,04,28,0.00
2017,03,17,04,29,0.00
2017,03,17,04,30,0.00
2017,03,17,04,31,0.00
2017,03,17,04,32,0.00
2017,03,17,04,33,0.00
2017,03,17,04,34,0.00
2017,03,17,04,35,0.00
2017,03,17,04,36,0.00
2017,03,17,04,37,0.00
2017,03,17,04,38,0.00
2017,03,17,04,39,0.00
2017,03,17,04,40,0.00
2017,03,17,04,41,0.00
2017,03,17,04,42,0.00
2017,03,17,04,43,0.00
2017,03,17,04,44,0.00
2017,03,17,04,45,0.00
2017,03,17,04,46,0.00
2017,03,17,04,47,0.00
2017,03,17,04,48,0.00
2017,03,17,04,49,0.00
2017,03,17,04,50,0.00
2017,03,17,04,51,0.00
2017,03,17,04,52,0.00
2017,03,17,04,53,0.00
2017,03,17,04,54,0.00
2017,03,17,04,55,0.00
2017,03,17,04,56,0.00
2017,03,17,04,57,0.00
2017,03,17,04,58,0.00
2017,03,17,04,59,0.00
2017,03,17,05,00,0.00
2017,03,17,05,01,0.00
2017,03,17,05,02,0.00
2017,03,17,05,03,0.00
2017,03,17,05,04,0.00
2017,03,17,05,05,0.00
2017,03,17,05,06,0.00
2017,03,17,05,07,0.00
2017,03,17,05,08,0.00
2017,03,17,05,09,0.00
2017,03,17,05,10,0.00
2017,03,17,05,11,0.00
2017,03,17,05,12,0.00
2017,03,17,05,13,0.00
2017,03,17,05,14,0.00
2017,03,17,05,15,0.00
2017,03,17,05,16,0.00
2017,03,17,05,17,0.00
2017,03,17,05,18,0.00
2017,03,17,05,19,0.00
2017,03,17,05,20,0.00
2017,03,17,05,21,0.00
2017,03,17,05,22,0.00
2017,03,17,05,23,0.00
2017,03,17,05,24,0.00
2017,03,17,05,25,0.00
2017,03,17,05,26,0.00
2017,03,17,05,27,0.00
2017,03,17,05,28,0.00
2017,03,17,05,29,0.00
2017,03,17,05,30,0.00
2017,03,17,05,31,0.00
2017,03,17,05,32,0.00
2017,03,17,05,33,0.00
2017,03,17,05,34,0.00
2017,03,17,05,35,0.00
2017,03,17,05,36,0.00
2017,03,17,05,37,0.00
2017,03,17,05,38,0.00
2017,03,17,05,39,0.00
2017,03,17,05,40,0.00
2017,03,17,05,41,0.00
2017,03,17,05,42,0.00
2017,03,17,05,43,0.00
2017,03,17,05,44,0.00
2017,03,17,05,45,0.00
2017,03,17,05,46,0.00
2017,03,17,05,47,0.00
2017,03,17,05,48,0.00
2017,03,17,05,49,0.00
2017,03,17,05,50,0.00
2017,03,17,05,51,0.00
2017,03,17,05,52,0.00
2017,03,17,05,53,0.00
2017,03,17,05,54,0.00
2017,03,17,05,55,0.00
2017,03,17,05,56,0.00
2017,03,17,05,57,0.00
2017,03,17,05,58,0.00
2017,03,17,05,59,0.00
2017,03,17,06,00,0.00
2017,03,17,06,01,0.00
2017,03,17,06,02,0.00
2017,03,17,06,03,0.00
2017,03,17,06,04,0.00
2017,03,17,06,05,0.00
2017,03,17,06,06,0.00
2017,03,17,06,07,0.00
2017,03,17,06,08,0.00
2017,03,17,06,09,0.00
2017,03,17,06,10,0.00
2017,03,17,06,11,0.00
2017,03,17,06,12,0.00
2017,03,17,06,13,0.00
2017,03,17,06,14,0.00
2017,03,17,06,15,0.00
2017,03,17,06,16,0.00
2017,03,17,06,17,0.00
2017,03,17,06,18,0.00
2017,03,17,06,19,0.00
2017,03,17,06,20,0.00
2017,03,17,06,21,0.00
2017,03,17,06,22,0.00
2017,03,17,06,23,0.00
2017,03,17,06,24,0.00
2017,03,17,06,25,0.00
2017,03,17,06,26,0.00
2017,03,17,06,27,0.00
2017,03,17,06,28,0.00
2017,03,17,06,29,0.00
2017,03,17,06,30,0.00
2017,03,17,06,31,0.00
2017,03,17,06,32,0.00
2017,03,17,06,33,0.00
2017,03,17,06,34,0.00
2017,03,17,06,35,0.00
2017,03,17,06,36,0.00
2017,03,17,06,37,0.00
2017,03,17,06,38,0.00
2017,03,17,06,39,0.00
2017,03,17,06,40,0.00
2017,03,17,06,41,0.00
2017,03,17,06,42,0.00
2017,03,17,06,43,0.00
2017,03,17,06,44,0.00
2017,03,17,06,45,0.00
2017,03,17,06,46,0.00
2017,03,17,06,47,0.00
2017,03,17,06,48,0.00
2017,03,17,06,49,0.00
2017,03,17,06,50,0.00
2017,03,17,06,51,0.00
2017,03,17,06,52,0.00
2017,03,17,06,53,0.00
2017,03,17,06,54,0.00
2017,03,17,06,55,0.00
2017,03,17,06,56,0.00
2017,03,17,06,57,0.00
2017,03,17,06,58,0.00
2017,03,17,06,59,0.00
2017,03,17,07,00,0.00
2017,03,17,07,01,0.00
2017,03,17,07,02,0.00
2017,03,17,07,03,0.00
2017,03,17,07,04,0.00
2017,03,17,07,05,0.00
2017,03,17,07,06,0.00
2017,03,17,07,07,0.00
2017,03,17,07,08,0.00
2017,03,17,07,09,0.00
2017,03,17,07,10,0.00
2017,03,17,07,11,0.00
2017,03,17,07,12,0.00
2017,03,17,07,13,0.00
2017,03,17,07,14,0.00
2017,03,17,07,15,0.00
2017,03,17,07,16,0.00
2017,03,17,07,17,0.00
2017,03,17,07,18,0.00
2017,03,17,07,19,0.00
2017,03,17,07,20,0.00
2017,03,17,07,21,0.00
2017,03,17,07,22,0.00
2017,03,17,07,23,0.00
2017,03,17,07,24,0.00
2017,03,17,07,25,0.00
2017,03,17,07,26,0.00
2017,03,17,07,27,0.00
2017,03,17,07,28,0.00
2017,03,17,07,29,0.00
2017,03,17,07,30,0.00
2017,03,17,07,31,0.00
2017,03,17,07,32,0.00
2017,03,17,07,33,0.00
2017,03,17,07,34,0.00
2017,03,17,07,35,0.00
2017,03,17,07,36,0.00
2017,03,17,07,37,0.00
2017,03,17,07,38,0.00
2017,03,17,07,39,0.00
2017,03,17,07,40,0.00
2017,03,17,07,41,0.00
2017,03,17,07,42,1.50
2017,03,17,07,43,5.00
2017,03,17,07,44,5.00
2017,03,17,07,45,5.00
2017,03,17,07,46,5.00
2017,03,17,07,47,6.50
2017,03,17,07,48,7.00
2017,03,17,07,49,8.80
2017,03,17,07,50,9.00
2017,03,17,07,51,9.30
2017,03,17,07,52,11.20
2017,03,17,07,53,12.00
2017,03,17,07,54,12.70
2017,03,17,07,55,13.00
2017,03,17,07,56,13.10
2017,03,17,07,57,12.70
2017,03,17,07,58,12.00
2017,03,17,07,59,13.60
2017,03,17,08,00,15.80
2017,03,17,08,01,14.30
2017,03,17,08,02,18.10
2017,03,17,08,03,19.90
2017,03,17,08,04,23.00
2017,03,17,08,05,22.20
2017,03,17,08,06,20.00
2017,03,17,08,07,20.10
2017,03,17,08,08,21.00
2017,03,17,08,09,23.80
2017,03,17,08,10,27.40
2017,03,17,08,11,29.80
2017,03,17,08,12,31.90
2017,03,17,08,13,32.00
2017,03,17,08,14,32.20
2017,03,17,08,15,33.60
2017,03,17,08,16,35.00
2017,03,17,08,17,35.00
2017,03,17,08,18,35.00
2017,03,17,08,19,35.00
2017,03,17,08,20,36.40
2017,03,17,08,21,37.00
2017,03,17,08,22,37.00
2017,03,17,08,23,39.00
2017,03,17,08,24,41.80
2017,03,17,08,25,39.80
2017,03,17,08,26,39.00
2017,03,17,08,27,39.00
2017,03,17,08,28,39.00
2017,03,17,08,29,39.00
2017,03,17,08,30,39.00
2017,03,17,08,31,39.70
2017,03,17,08,32,43.30
2017,03,17,08,33,48.40
2017,03,17,08,34,48.90
2017,03,17,08,35,45.70
2017,03,17,08,36,44.40
2017,03,17,08,37,46.90
2017,03,17,08,38,50.50
2017,03,17,08,39,53.50
2017,03,17,08,40,55.10
2017,03,17,08,41,57.30
2017,03,17,08,42,58.00
2017,03,17,08,43,58.00
2017,03,17,08,44,58.00
2017,03,17,08,45,56.00
2017,03,17,08,46,54.00
2017,03,17,08,47,54.00
2017,03,17,08,48,53.70
2017,03,17,08,49,52.30
2017,03,17,08,50,50.00
2017,03,17,08,51,50.10
2017,03,17,08,52,51.00
2017,03,17,08,53,52.40
2017,03,17,08,54,53.00
2017,03,17,08,55,53.00
2017,03,17,08,56,53.00
2017,03,17,08,57,54.00
2017,03,17,08,58,54.00
2017,03,17,08,59,54.60
2017,03,17,09,00,56.00
2017,03,17,09,01,55.00
2017,03,17,09,02,55.10
2017,03,17,09,03,56.00
2017,03,17,09,04,54.60
2017,03,17,09,05,53.20
2017,03,17,09,06,51.20
2017,03,17,09,07,52.90
2017,03,17,09,08,53.40
2017,03,17,09,09,56.40
2017,03,17,09,10,58.60
2017,03,17,09,11,60.00
2017,03,17,09,12,61.00
2017,03,17,09,13,62.60
2017,03,17,09,14,64.30
2017,03,17,09,15,65.00
2017,03,17,09,16,63.40
2017,03,17,09,17,63.00
2017,03,17,09,18,62.00
2017,03,17,09,19,61.80
2017,03,17,09,20,60.40
2017,03,17,09,21,63.50
2017,03,17,09,22,67.00
2017,03,17,09,23,69.40
2017,03,17,09,24,74.20
2017,03,17,09,25,74.70
2017,03,17,09,26,79.20
2017,03,17,09,27,82.60
2017,03,17,09,28,77.70
2017,03,17,09,29,70.40
2017,03,17,09,30,72.60
2017,03,17,09,31,77.70
2017,03,17,09,32,83.10
2017,03,17,09,33,89.90
2017,03,17,09,34,95.20
2017,03,17,09,35,98.00
2017,03,17,09,36,104.90
2017,03,17,09,37,113.90
2017,03,17,09,38,113.60
2017,03,17,09,39,113.00
2017,03,17,09,40,110.90
2017,03,17,09,41,105.90
2017,03,17,09,42,115.70
2017,03,17,09,43,123.80
2017,03,17,09,44,122.50
2017,03,17,09,45,126.30
2017,03,17,09,46,129.10
2017,03,17,09,47,128.70
2017,03,17,09,48,127.30
2017,03,17,09,49,125.40
2017,03,17,09,50,123.20
2017,03,17,09,51,120.10
2017,03,17,09,52,120.10
2017,03,17,09,53,121.90
2017,03,17,09,54,125.60
2017,03,17,09,55,127.00
2017,03,17,09,56,129.20
2017,03,17,09,57,135.60
2017,03,17,09,58,142.10
2017,03,17,09,59,147.50
2017,03,17,10,00,150.60
2017,03,17,10,01,151.00
2017,03,17,10,02,151.00
2017,03,17,10,03,151.00
2017,03,17,10,04,151.00
2017,03,17,10,05,151.00
2017,03,17,10,06,151.70
2017,03,17,10,07,156.10
2017,03,17,10,08,163.60
2017,03,17,10,09,170.10
2017,03,17,10,10,174.90
2017,03,17,10,11,176.00
2017,03,17,10,12,172.40
2017,03,17,10,13,173.80
2017,03,17,10,14,172.00
2017,03,17,10,15,172.00
2017,03,17,10,16,172.00
2017,03,17,10,17,172.80
2017,03,17,10,18,173.10
2017,03,17,10,19,171.40
2017,03,17,10,20,169.70
2017,03,17,10,21,169.00
2017,03,17,10,22,169.00
2017,03,17,10,23,169.00
2017,03,17,10,24,166.90
2017,03,17,10,25,162.70
2017,03,17,10,26,159.10
2017,03,17,10,27,154.40
2017,03,17,10,28,153.00
2017,03,17,10,29,152.10
2017,03,17,10,30,150.00
2017,03,17,10,31,149.00
2017,03,17,10,32,151.90
2017,03,17,10,33,160.30
2017,03,17,10,34,168.20
2017,03,17,10,35,176.00
2017,03,17,10,36,179.00
2017,03,17,10,37,179.00
2017,03,17,10,38,178.70
2017,03,17,10,39,178.40
2017,03,17,10,40,179.00
2017,03,17,10,41,180.10
2017,03,17,10,42,181.00
2017,03,17,10,43,179.50
2017,03,17,10,44,176.60
2017,03,17,10,45,172.40
2017,03,17,10,46,171.00
2017,03,17,10,47,169.00
2017,03,17,10,48,169.70
2017,03,17,10,49,173.20
2017,03,17,10,50,176.70
2017,03,17,10,51,179.40
2017,03,17,10,52,183.20
2017,03,17,10,53,183.70
2017,03,17,10,54,180.20
2017,03,17,10,55,176.60
2017,03,17,10,56,174.20
2017,03,17,10,57,171.00
2017,03,17,10,58,166.60
2017,03,17,10,59,162.80
2017,03,17,11,00,161.40
2017,03,17,11,01,158.50
2017,03,17,11,02,155.60
2017,03,17,11,03,155.00
2017,03,17,11,04,155.60
2017,03,17,11,05,156.00
2017,03,17,11,06,155.20
2017,03,17,11,07,149.70
2017,03,17,11,08,143.70
2017,03,17,11,09,136.70
2017,03,17,11,10,134.00
2017,03,17,11,11,132.80
2017,03,17,11,12,128.90
2017,03,17,11,13,126.10
2017,03,17,11,14,125.00
2017,03,17,11,15,122.50
2017,03,17,11,16,120.30
2017,03,17,11,17,120.00
2017,03,17,11,18,118.20
2017,03,17,11,19,116.10
2017,03,17,11,20,116.00
2017,03,17,11,21,116.00
2017,03,17,11,22,116.60
2017,03,17,11,23,118.70
2017,03,17,11,24,120.40
2017,03,17,11,25,122.10
2017,03,17,11,26,124.30
2017,03,17,11,27,126.40
2017,03,17,11,28,127.80
2017,03,17,11,29,129.80
2017,03,17,11,30,131.90
2017,03,17,11,31,132.00
2017,03,17,11,32,131.60
2017,03,17,11,33,129.40
2017,03,17,11,34,128.00
2017,03,17,11,35,127.50
2017,03,17,11,36,127.00
2017,03,17,11,37,127.00
2017,03,17,11,38,124.20
2017,03,17,11,39,123.00
2017,03,17,11,40,121.20
2017,03,17,11,41,118.20
2017,03,17,11,42,120.30
2017,03,17,11,43,123.90
2017,03,17,11,44,127.30
2017,03,17,11,45,129.60
2017,03,17,11,46,133.40
2017,03,17,11,47,139.70
2017,03,17,11,48,149.70
2017,03,17,11,49,157.90
2017,03,17,11,50,163.90
2017,03,17,11,51,168.60
2017,03,17,11,52,174.20
2017,03,17,11,53,185.80
2017,03,17,11,54,192.90
2017,03,17,11,55,197.90
2017,03,17,11,56,201.50
2017,03,17,11,57,204.00
2017,03,17,11,58,204.00
2017,03,17,11,59,202.70
2017,03,17,12,00,203.40
2017,03,17,12,01,206.30
2017,03,17,12,02,207.00
2017,03,17,12,03,211.00
2017,03,17,12,04,214.30
2017,03,17,12,05,216.40
2017,03,17,12,06,218.00
2017,03,17,12,07,218.00
2017,03,17,12,08,219.40
2017,03,17,12,09,223.20
2017,03,17,12,10,227.50
2017,03,17,12,11,229.70
2017,03,17,12,12,231.60
2017,03,17,12,13,232.00
2017,03,17,12,14,230.00
2017,03,17,12,15,227.00
2017,03,17,12,16,227.00
2017,03,17,12,17,227.60
2017,03,17,12,18,229.00
2017,03,17,12,19,228.10
2017,03,17,12,20,224.80
2017,03,17,12,21,221.70
2017,03,17,12,22,223.80
2017,03,17,12,23,225.00
2017,03,17,12,24,226.80
2017,03,17,12,25,227.10
2017,03,17,12,26,229.10
2017,03,17,12,27,230.00
2017,03,17,12,28,230.60
2017,03,17,12,29,232.70
2017,03,17,12,30,233.10
2017,03,17,12,31,230.30
2017,03,17,12,32,225.20
2017,03,17,12,33,220.90
2017,03,17,12,34,218.40
2017,03,17,12,35,216.20
2017,03,17,12,36,214.00
2017,03,17,12,37,210.80
2017,03,17,12,38,208.60
2017,03,17,12,39,206.70
2017,03,17,12,40,204.50
2017,03,17,12,41,201.10
2017,03,17,12,42,198.30
2017,03,17,12,43,197.00
2017,03,17,12,44,197.00
2017,03,17,12,45,199.30
2017,03,17,12,46,203.60
2017,03,17,12,47,209.10
2017,03,17,12,48,216.40
2017,03,17,12,49,220.70
2017,03,17,12,50,224.20
2017,03,17,12,51,228.10
2017,03,17,12,52,233.10
2017,03,17,12,53,242.00
2017,03,17,12,54,251.70
2017,03,17,12,55,257.10
2017,03,17,12,56,258.00
2017,03,17,12,57,253.60
2017,03,17,12,58,251.30
2017,03,17,12,59,257.30
2017,03,17,13,00,260.00
2017,03,17,13,01,260.60
2017,03,17,13,02,262.70
2017,03,17,13,03,264.40
2017,03,17,13,04,267.20
2017,03,17,13,05,270.90
2017,03,17,13,06,273.40
2017,03,17,13,07,275.60
2017,03,17,13,08,272.40
2017,03,17,13,09,270.90
2017,03,17,13,10,267.20
2017,03,17,13,11,269.70
2017,03,17,13,12,271.70
2017,03,17,13,13,267.30
2017,03,17,13,14,259.60
2017,03,17,13,15,258.70
2017,03,17,13,16,256.90
2017,03,17,13,17,249.80
2017,03,17,13,18,243.90
2017,03,17,13,19,243.90
2017,03,17,13,20,249.90
2017,03,17,13,21,253.20
2017,03,17,13,22,253.70
2017,03,17,13,23,245.90
2017,03,17,13,24,237.70
2017,03,17,13,25,231.10
2017,03,17,13,26,232.20
2017,03,17,13,27,235.90
2017,03,17,13,28,239.80
2017,03,17,13,29,242.60
2017,03,17,13,30,243.90
2017,03,17,13,31,249.80
2017,03,17,13,32,249.80
2017,03,17,13,33,247.60
2017,03,17,13,34,244.50
2017,03,17,13,35,242.10
2017,03,17,13,36,249.10
2017,03,17,13,37,258.60
2017,03,17,13,38,263.20
2017,03,17,13,39,262.60
2017,03,17,13,40,256.50
2017,03,17,13,41,256.80
2017,03,17,13,42,270.80
2017,03,17,13,43,279.20
2017,03,17,13,44,279.90
2017,03,17,13,45,271.90
2017,03,17,13,46,257.90
2017,03,17,13,47,250.60
2017,03,17,13,48,250.00
2017,03,17,13,49,250.00
2017,03,17,13,50,248.60
2017,03,17,13,51,244.90
2017,03,17,13,52,241.30
2017,03,17,13,53,239.00
2017,03,17,13,54,234.70
2017,03,17,13,55,225.70
2017,03,17,13,56,221.00
2017,03,17,13,57,221.70
2017,03,17,13,58,222.10
2017,03,17,13,59,219.30
2017,03,17,14,00,218.00
2017,03,17,14,01,218.00
2017,03,17,14,02,220.30
2017,03,17,14,03,224.60
2017,03,17,14,04,226.90
2017,03,17,14,05,225.20
2017,03,17,14,06,227.70
2017,03,17,14,07,230.00
2017,03,17,14,08,229.60
2017,03,17,14,09,229.00
2017,03,17,14,10,229.00
2017,03,17,14,11,229.00
2017,03,17,14,12,229.00
2017,03,17,14,13,227.40
2017,03,17,14,14,228.80
2017,03,17,14,15,230.00
2017,03,17,14,16,231.80
2017,03,17,14,17,230.90
2017,03,17,14,18,234.60
2017,03,17,14,19,235.30
2017,03,17,14,20,230.90
2017,03,17,14,21,223.10
2017,03,17,14,22,215.60
2017,03,17,14,23,213.00
2017,03,17,14,24,215.30
2017,03,17,14,25,216.00
2017,03,17,14,26,213.00
2017,03,17,14,27,209.60
2017,03,17,14,28,214.10
2017,03,17,14,29,220.70
2017,03,17,14,30,229.60
2017,03,17,14,31,233.00
2017,03,17,14,32,230.90
2017,03,17,14,33,231.30
2017,03,17,14,34,236.90
2017,03,17,14,35,242.30
2017,03,17,14,36,243.00
2017,03,17,14,37,240.90
2017,03,17,14,38,235.00
2017,03,17,14,39,227.20
2017,03,17,14,40,218.60
2017,03,17,14,41,211.50
2017,03,17,14,42,210.00
2017,03,17,14,43,212.70
2017,03,17,14,44,216.50
2017,03,17,14,45,218.00
2017,03,17,14,46,218.00
2017,03,17,14,47,218.00
2017,03,17,14,48,213.00
2017,03,17,14,49,206.90
2017,03,17,14,50,206.00
2017,03,17,14,51,206.00
2017,03,17,14,52,204.50
2017,03,17,14,53,199.80
2017,03,17,14,54,193.10
2017,03,17,14,55,186.90
2017,03,17,14,56,182.20
2017,03,17,14,57,179.40
2017,03,17,14,58,180.80
2017,03,17,14,59,182.90
2017,03,17,15,00,180.70
2017,03,17,15,01,176.70
2017,03,17,15,02,172.60
2017,03,17,15,03,175.90
2017,03,17,15,04,180.90
2017,03,17,15,05,180.80
2017,03,17,15,06,175.90
2017,03,17,15,07,174.00
2017,03,17,15,08,174.00
2017,03,17,15,09,175.80
2017,03,17,15,10,178.00
2017,03,17,15,11,179.20
2017,03,17,15,12,181.90
2017,03,17,15,13,186.50
2017,03,17,15,14,190.00
2017,03,17,15,15,188.20
2017,03,17,15,16,186.00
2017,03,17,15,17,186.00
2017,03,17,15,18,187.40
2017,03,17,15,19,186.40
2017,03,17,15,20,179.80
2017,03,17,15,21,171.90
2017,03,17,15,22,166.40
2017,03,17,15,23,162.80
2017,03,17,15,24,161.40
2017,03,17,15,25,159.20
2017,03,17,15,26,157.10
2017,03,17,15,27,154.40
2017,03,17,15,28,150.50
2017,03,17,15,29,145.50
2017,03,17,15,30,142.40
2017,03,17,15,31,142.00
2017,03,17,15,32,143.90
2017,03,17,15,33,144.00
2017,03,17,15,34,143.60
2017,03,17,15,35,142.00
2017,03,17,15,36,141.60
2017,03,17,15,37,141.40
2017,03,17,15,38,143.10
2017,03,17,15,39,144.00
2017,03,17,15,40,144.00
2017,03,17,15,41,144.00
2017,03,17,15,42,144.00
2017,03,17,15,43,144.10
2017,03,17,15,44,146.30
2017,03,17,15,45,148.00
2017,03,17,15,46,147.40
2017,03,17,15,47,146.00
2017,03,17,15,48,146.90
2017,03,17,15,49,148.00
2017,03,17,15,50,144.20
2017,03,17,15,51,137.10
2017,03,17,15,52,130.90
2017,03,17,15,53,125.60
2017,03,17,15,54,121.10
2017,03,17,15,55,120.90
2017,03,17,15,56,119.10
2017,03,17,15,57,115.40
2017,03,17,15,58,113.60
2017,03,17,15,59,113.00
2017,03,17,16,00,113.60
2017,03,17,16,01,117.80
2017,03,17,16,02,123.50
2017,03,17,16,03,127.40
2017,03,17,16,04,131.60
2017,03,17,16,05,135.20
2017,03,17,16,06,139.30
2017,03,17,16,07,140.10
2017,03,17,16,08,137.00
2017,03,17,16,09,138.60
2017,03,17,16,10,141.00
2017,03,17,16,11,139.90
2017,03,17,16,12,136.50
2017,03,17,16,13,131.30
2017,03,17,16,14,127.60
2017,03,17,16,15,127.00
2017,03,17,16,16,126.80
2017,03,17,16,17,120.00
2017,03,17,16,18,111.80
2017,03,17,16,19,101.90
2017,03,17,16,20,94.80
2017,03,17,16,21,85.70
2017,03,17,16,22,76.20
2017,03,17,16,23,72.70
2017,03,17,16,24,69.90
2017,03,17,16,25,58.40
2017,03,17,16,26,48.00
2017,03,17,16,27,46.10
2017,03,17,16,28,50.00
2017,03,17,16,29,57.60
2017,03,17,16,30,66.30
2017,03,17,16,31,75.10
2017,03,17,16,32,78.00
2017,03,17,16,33,79.00
2017,03,17,16,34,79.00
2017,03,17,16,35,81.80
2017,03,17,16,36,83.80
2017,03,17,16,37,84.00
2017,03,17,16,38,84.00
2017,03,17,16,39,82.30
2017,03,17,16,40,76.80
2017,03,17,16,41,73.90
2017,03,17,16,42,66.40
2017,03,17,16,43,63.40
2017,03,17,16,44,65.00
2017,03,17,16,45,63.10
2017,03,17,16,46,55.70
2017,03,17,16,47,51.40
2017,03,17,16,48,49.20
2017,03,17,16,49,46.60
2017,03,17,16,50,39.90
2017,03,17,16,51,39.70
2017,03,17,16,52,42.00
2017,03,17,16,53,42.00
2017,03,17,16,54,42.00
2017,03,17,16,55,44.20
2017,03,17,16,56,43.50
2017,03,17,16,57,43.50
2017,03,17,16,58,45.60
2017,03,17,16,59,46.00
2017,03,17,17,00,40.00
2017,03,17,17,01,37.30
2017,03,17,17,02,41.10
2017,03,17,17,03,46.30
2017,03,17,17,04,49.20
2017,03,17,17,05,55.20
2017,03,17,17,06,60.10
2017,03,17,17,07,62.00
2017,03,17,17,08,62.00
2017,03,17,17,09,62.80
2017,03,17,17,10,62.10
2017,03,17,17,11,56.00
2017,03,17,17,12,48.70
2017,03,17,17,13,45.60
2017,03,17,17,14,42.80
2017,03,17,17,15,40.00
2017,03,17,17,16,37.60
2017,03,17,17,17,32.20
2017,03,17,17,18,31.30
2017,03,17,17,19,32.00
2017,03,17,17,20,32.80
2017,03,17,17,21,36.60
2017,03,17,17,22,38.80